Tracking 18843 objects as of 20-November-2017
HD Live streaming from Space Station
objects crossing your sky now

COSMOS 1999

Track COSMOS 1999 now!
10-day predictions
COSMOS 1999 is classified as:


NORAD ID: 19790
Int'l Code: 1989-009F
Perigee: 1,391.2 km
Apogee: 1,422.3 km
Inclination: 82.6 °
Period: 113.8 minutes
Semi major axis: 7777 km
RCS: 1.0674 m2 (large)
Launch date: February 10, 1989
Source: Commonwealth of Independent States (former USSR) (CIS)
Launch site: PLESETSK MISSILE AND SPACE COMPLEX (PKMTR)
aabbcc
Your satellite tracking list
Your tracking list is empty




NASA's NSSDC Master Catalog

Two Line Element Set (TLE):
1 19790U 89009F   17323.65118122 +.00000032 +00000-0 +11105-3 0  9990
2 19790 082.6168 166.6665 0019994 167.7601 251.8037 12.65664392329098
Source of the keplerian elements: AFSPC